[[{"header":{"parameterUnit":"m.s-1","parameterCategory":1,"la1":30.2991,"la2":30.254,"lo1":-89.0895,"lo2":-89.0444,"dy":0.0017,"dx":0.0017,"nx":28,"ny":28,"refTime":"2025-07-14T09:00:00:Z","depth":0,"parameterNumber":2,"parameterNumberName":"U-component_of_WINDS"},"data":[0,0,0,0,0,0,0,0,0,0,0,0,0,0,0,0,0,0,0,0,0,0,0,0,0,0,0,0,0,0,0,0,0,0,0,0,0,0,0,0,0,0,0,0,0,0,0,0,0,0,0,0,0,0,0,0,0,0,1.8105,1.8106,0,1.8202,1.8203,1.8204,1.8162,1.816,1.8158,1.8155,1.8258,1.8263,1.8268,0,0,0,0,0,0,0,0,0,0,0,0,0,1.7887,1.7892,1.8105,1.8107,1.8108,1.8202,1.8203,1.8205,1.8163,1.816,1.8157,1.8154,1.8256,1.8262,1.8268,0,0,0,0,0,0,0,0,0,0,0,0,0,1.7983,1.7893,1.8105,1.8098,1.8098,1.8202,1.8203,1.8205,1.8163,1.816,1.8156,1.8153,1.8254,1.8262,1.8269,1.8386,0,0,1.8292,1.8295,0,0,0,0,0,0,0,0,1.7978,1.7991,1.8098,1.8099,1.8099,1.8166,1.8164,1.8266,1.8164,1.8139,1.8155,1.8151,1.8231,1.824,1.8266,1.8391,1.8395,1.8292,1.8297,1.83,1.8302,0,0,0,0,0,0,0,1.7971,1.7987,1.8144,1.81,1.8101,1.8091,1.8101,1.8183,1.8204,1.8141,1.8138,1.815,1.823,1.8259,1.8268,1.8396,1.8292,1.8299,1.8303,1.8306,1.8621,1.8625,0,0,0,0,0,0,1.7964,1.7981,1.8141,1.8147,1.8028,1.8098,1.8109,1.8149,1.8203,1.8207,1.8153,1.8148,1.8248,1.8259,1.8271,1.8411,1.83,1.8307,1.8311,1.8617,1.8622,1.8626,0,0,0,0,0,0,1.796,1.7979,1.8137,1.8063,1.8083,1.8105,1.8151,1.8152,1.8181,1.8212,1.8215,1.8178,1.8246,1.8261,1.8357,1.8414,1.831,1.8317,1.8613,1.8619,1.8624,1.8692,0,0,0,0,0,0,1.7953,1.7977,1.8021,1.8065,1.8087,1.822,1.8154,1.8157,1.8193,1.8187,1.8236,1.8241,1.8244,1.8346,1.8365,1.8422,1.8323,1.8608,1.8616,1.8622,1.8684,1.8699,1.8712,0,0,0,0,0,1.7946,1.8037,1.8024,1.8043,1.8142,1.8224,1.8236,1.8237,1.8198,1.8243,1.8262,1.8239,1.8405,1.8357,1.8377,1.8438,1.8604,1.8613,1.8622,1.8678,1.8696,1.8711,0,0,0,0,0,0,1.8001,1.8043,1.8028,1.8136,1.8176,1.8216,1.8273,1.8256,1.8309,1.8302,1.8302,1.8313,1.8412,1.8435,1.838,1.8553,1.8499,1.8512,1.8535,1.8552,1.8565,1.8558,1.8329,0,0,0,0,0,1.8026,1.8088,1.8121,1.8213,1.8234,1.825,1.8286,1.8282,1.8325,1.8342,1.8369,1.8412,1.8473,1.8514,1.8573,1.8688,1.8698,1.8739,1.8753,1.8764,1.8775,1.8838,1.8856,1.8656,1.8655,1.8655,0,0,1.8078,1.8108,1.8147,1.8225,1.8256,1.832,1.8265,1.8336,1.8384,1.8353,1.8445,1.8467,1.8514,1.862,1.8668,1.8642,1.8833,1.8775,1.8784,1.8789,1.8849,1.8868,1.8884,1.8662,1.866,1.8659,0,0,1.8205,1.8234,1.8313,1.8345,1.8392,1.8402,1.8421,1.8464,1.8476,1.8568,1.8546,1.8605,1.8711,1.8745,1.8777,1.8917,1.8898,1.8937,1.9007,1.9068,1.9084,1.9098,1.9147,1.9165,1.8948,1.8948,1.8948,0,1.8263,1.8359,1.8357,1.8429,1.8464,1.8438,1.8519,1.855,1.8615,1.864,1.8609,1.8741,1.8772,1.8885,1.8919,1.8946,1.8968,1.8931,1.9081,1.9096,1.9109,1.9156,1.9175,1.8952,1.8952,1.8951,1.8951,0,1.8428,1.8495,1.8554,1.8615,1.8656,1.8733,1.8743,1.8786,1.8779,1.8793,1.8887,1.8922,1.8987,1.9014,1.9009,1.9127,1.9109,1.908,1.9026,1.9132,1.9176,1.9195,1.8959,1.8957,1.8956,1.8955,0,0,1.8593,1.8651,1.8673,1.87,1.875,1.8802,1.8877,1.8939,1.8976,1.9021,1.9085,1.9175,1.9148,1.9184,1.9183,1.9236,1.9344,1.9201,1.9202,1.9225,1.9476,1.9497,1.9518,1.9332,1.9335,1.9338,1.9472,0,1.8723,1.8854,1.8854,1.8975,1.9036,1.9012,1.9078,1.9116,1.9131,1.9186,1.9203,1.9267,1.9227,1.9248,1.93,1.932,1.9394,1.9311,1.9391,1.9394,1.9379,1.9541,1.9564,1.9688,1.9489,1.9492,1.9494,0,1.8893,1.8942,1.9068,1.9108,1.9134,1.9193,1.925,1.9303,1.9346,1.9353,1.9393,1.9383,1.9461,1.9404,1.9511,1.9454,1.9487,1.9502,1.9507,1.9514,1.945,1.9552,1.9728,1.9747,1.9522,1.952,1.9518,0,1.8999,1.9097,1.9185,1.9209,1.9259,1.93,1.9323,1.9363,1.94,1.945,1.9474,1.9534,1.9566,1.9612,1.962,1.9578,1.9727,1.9671,1.9736,1.9736,1.9768,1.9766,1.9951,1.979,1.979,1.979,1.9789,0,1.9144,1.9222,1.9233,1.9288,1.9375,1.9375,1.9461,1.9481,1.9516,1.9574,1.9558,1.9613,1.9619,1.9677,1.9683,1.9771,1.9786,1.9794,1.9795,1.9795,1.9794,1.9817,1.9808,1.9795,1.9794,1.9793,1.9792,0,1.9277,1.9288,1.9382,1.9421,1.9432,1.9495,1.9528,1.9581,1.9593,1.9667,1.9685,1.9706,1.9772,1.9784,1.9863,1.9867,1.9972,1.9964,1.9957,1.9955,2.0019,2.0013,2.0225,2.0253,2.0075,2.0076,2.0078,0,1.9369,1.9428,1.9473,1.951,1.9534,1.9594,1.9632,1.9634,1.9674,1.9727,1.9773,1.9838,1.989,1.9997,2.002,2.0081,2.0074,2.0144,2.0083,2.0081,2.0074,2.0071,2.0076,2.0156,2.0158,2.0159,2.0161,0,1.953,1.9532,1.9586,1.9642,1.9687,1.9731,1.9773,1.9805,1.9813,1.9859,1.9926,1.9966,2.0046,2.011,2.017,2.0195,2.018,2.018,2.0198,2.0198,2.0192,2.0196,1.9988,2.0175,2.0173,2.0172,2.0171,2.0171,1.9645,1.9696,1.9735,1.9796,1.9827,1.9867,1.9917,1.9936,1.9992,2.0056,2.0054,2.0128,2.017,2.0248,2.0277,2.0335,2.0313,2.0339,2.0346,2.0352,2.0358,2.0183,2.0346,2.0346,2.0345,2.0345,2.0345,0,1.9805,1.9828,1.9884,1.9942,1.999,1.997,2.0016,2.0057,2.0122,2.0161,2.0212,2.0289,2.0352,2.0379,2.0441,2.0482,2.0477,2.0498,2.0495,2.0501,2.0374,2.0352,2.0502,2.0502,2.0502,2.0502,2.0502,2.0501,1.9893,1.9979,1.9985,2.0087,2.011,2.0181,2.0208,2.0245,2.0276,2.0363,2.0414,2.0431,2.0466,2.053,2.0587,2.0593,2.0617,2.0641,2.0645,2.0526,2.051,2.0495,2.0474,2.0646,2.0647,2.0766,2.0767,2.0768]},{"header":{"parameterUnit":"m.s-1","parameterCategory":1,"la1":30.2991,"la2":30.254,"lo1":-89.0895,"lo2":-89.0444,"dy":0.0017,"dx":0.0017,"nx":28,"ny":28,"refTime":"2025-07-14T09:00:00:Z","depth":0,"parameterNumber":3,"parameterNumberName":"V-component_of_WINDS"},"data":[0,0,0,0,0,0,0,0,0,0,0,0,0,0,0,0,0,0,0,0,0,0,0,0,0,0,0,0,0,0,0,0,0,0,0,0,0,0,0,0,0,0,0,0,0,0,0,0,0,0,0,0,0,0,0,0,0,0,-0.1286,-0.1286,0,-0.1259,-0.1259,-0.1258,-0.1297,-0.1298,-0.1299,-0.1301,-0.1271,-0.1269,-0.1267,0,0,0,0,0,0,0,0,0,0,0,0,0,-0.1371,-0.1369,-0.1286,-0.1286,-0.1286,-0.1259,-0.1259,-0.1258,-0.1296,-0.1298,-0.13,-0.1301,-0.1272,-0.127,-0.1267,0,0,0,0,0,0,0,0,0,0,0,0,0,-0.1338,-0.1369,-0.1286,-0.1301,-0.1303,-0.1259,-0.1259,-0.1258,-0.1296,-0.1298,-0.13,-0.1302,-0.1273,-0.127,-0.1267,-0.1207,0,0,-0.1257,-0.1256,0,0,0,0,0,0,0,0,-0.134,-0.1335,-0.13,-0.13,-0.1301,-0.1283,-0.1278,-0.1241,-0.1296,-0.1298,-0.1301,-0.1303,-0.1274,-0.1271,-0.1261,-0.1205,-0.1204,-0.1257,-0.1255,-0.1254,-0.1253,0,0,0,0,0,0,0,-0.1342,-0.1336,-0.1275,-0.1299,-0.13,-0.1309,-0.1307,-0.1271,-0.1275,-0.1298,-0.1301,-0.1297,-0.1275,-0.1264,-0.1261,-0.1204,-0.1257,-0.1255,-0.1253,-0.1251,-0.1098,-0.1096,0,0,0,0,0,0,-0.1343,-0.1338,-0.1276,-0.1275,-0.1326,-0.1306,-0.1304,-0.1287,-0.1275,-0.1276,-0.1296,-0.1299,-0.1268,-0.1264,-0.126,-0.1188,-0.1254,-0.1251,-0.1249,-0.11,-0.1098,-0.1095,0,0,0,0,0,0,-0.1344,-0.1337,-0.1277,-0.1307,-0.13,-0.1303,-0.1284,-0.1285,-0.1275,-0.1273,-0.1274,-0.1284,-0.127,-0.1264,-0.122,-0.1188,-0.125,-0.1247,-0.1103,-0.11,-0.1097,-0.1046,0,0,0,0,0,0,-0.1346,-0.1337,-0.1314,-0.1306,-0.1298,-0.1238,-0.1282,-0.1283,-0.1269,-0.1274,-0.1263,-0.1263,-0.1271,-0.1224,-0.1217,-0.1185,-0.1245,-0.1106,-0.1102,-0.1098,-0.105,-0.1041,-0.1033,0,0,0,0,0,-0.1349,-0.1301,-0.1313,-0.1305,-0.127,-0.1236,-0.1231,-0.1242,-0.1267,-0.1244,-0.1243,-0.1263,-0.1193,-0.1219,-0.1211,-0.1178,-0.1108,-0.1103,-0.1098,-0.1054,-0.1043,-0.1033,0,0,0,0,0,0,-0.1304,-0.13,-0.1313,-0.126,-0.1248,-0.1242,-0.1214,-0.123,-0.121,-0.1215,-0.1229,-0.1226,-0.1179,-0.1174,-0.1204,-0.112,-0.1155,-0.1148,-0.1124,-0.1113,-0.1105,-0.1106,-0.1242,0,0,0,0,0,-0.1288,-0.1261,-0.1259,-0.1212,-0.1206,-0.1211,-0.1196,-0.1206,-0.1194,-0.1188,-0.1185,-0.1172,-0.1147,-0.113,-0.1107,-0.105,-0.1048,-0.1024,-0.1015,-0.1008,-0.1002,-0.0971,-0.096,-0.1079,-0.1079,-0.1079,0,0,-0.1254,-0.1249,-0.1231,-0.1203,-0.1195,-0.1166,-0.1206,-0.1174,-0.1153,-0.1184,-0.1141,-0.1138,-0.1125,-0.1074,-0.1052,-0.1069,-0.0969,-0.1002,-0.0996,-0.0993,-0.0965,-0.0954,-0.0944,-0.1076,-0.1076,-0.1077,0,0,-0.1178,-0.1171,-0.1132,-0.1123,-0.1111,-0.1115,-0.1105,-0.1097,-0.1096,-0.1055,-0.1077,-0.1052,-0.1009,-0.0999,-0.0988,-0.091,-0.0927,-0.0902,-0.0857,-0.0827,-0.0818,-0.0809,-0.0781,-0.0771,-0.0896,-0.0896,-0.0896,0,-0.1137,-0.1096,-0.111,-0.1076,-0.1063,-0.1091,-0.1051,-0.1042,-0.1022,-0.1012,-0.1033,-0.098,-0.0973,-0.092,-0.0901,-0.0892,-0.0881,-0.0902,-0.0818,-0.081,-0.0802,-0.0775,-0.0765,-0.0893,-0.0893,-0.0893,-0.0894,0,-0.1046,-0.1017,-0.0987,-0.0968,-0.0952,-0.0915,-0.0924,-0.0906,-0.0917,-0.0919,-0.0877,-0.0869,-0.0846,-0.0834,-0.0845,-0.0783,-0.0794,-0.0816,-0.0851,-0.0788,-0.0763,-0.0752,-0.0888,-0.0889,-0.089,-0.0891,0,0,-0.0939,-0.0929,-0.0917,-0.0909,-0.0898,-0.0876,-0.0841,-0.0818,-0.0803,-0.0789,-0.076,-0.0723,-0.0744,-0.0731,-0.0741,-0.0715,-0.0653,-0.074,-0.074,-0.0724,-0.0585,-0.0567,-0.0555,-0.0666,-0.0664,-0.0662,-0.0585,0,-0.0862,-0.0802,-0.0814,-0.0755,-0.0728,-0.0755,-0.0725,-0.0714,-0.0716,-0.0693,-0.0695,-0.0668,-0.0698,-0.069,-0.0666,-0.0666,-0.0625,-0.0672,-0.0638,-0.0636,-0.0639,-0.0542,-0.0523,-0.0451,-0.0576,-0.0574,-0.0573,0,-0.0764,-0.0747,-0.0686,-0.0679,-0.0669,-0.0641,-0.0622,-0.06,-0.0589,-0.0592,-0.0579,-0.0594,-0.0559,-0.0596,-0.0549,-0.058,-0.0568,-0.0566,-0.0563,-0.0559,-0.06,-0.0534,-0.0428,-0.0417,-0.0558,-0.0559,-0.056,0,-0.0691,-0.0653,-0.0611,-0.0604,-0.0595,-0.0575,-0.0571,-0.0563,-0.0548,-0.0532,-0.0523,-0.0502,-0.049,-0.0474,-0.0483,-0.0509,-0.0434,-0.0472,-0.0435,-0.0434,-0.0416,-0.0417,-0.0305,-0.041,-0.041,-0.041,-0.0411,0,-0.0603,-0.0564,-0.0578,-0.0552,-0.051,-0.0525,-0.0482,-0.0481,-0.0473,-0.0448,-0.047,-0.0445,-0.0459,-0.0436,-0.0443,-0.0403,-0.0397,-0.0398,-0.04,-0.0395,-0.0395,-0.0386,-0.0391,-0.0407,-0.0408,-0.0409,-0.0409,0,-0.0513,-0.0521,-0.0478,-0.0474,-0.0472,-0.0441,-0.0438,-0.0414,-0.0418,-0.0385,-0.0378,-0.0383,-0.0357,-0.0365,-0.0337,-0.0342,-0.029,-0.0299,-0.0293,-0.0295,-0.0258,-0.0261,-0.0135,-0.012,-0.0235,-0.0234,-0.0233,0,-0.0456,-0.0427,-0.0421,-0.0406,-0.04,-0.0375,-0.0361,-0.0375,-0.0359,-0.0346,-0.0323,-0.0299,-0.028,-0.0237,-0.0238,-0.0217,-0.0225,-0.0183,-0.0222,-0.0218,-0.0223,-0.0225,-0.0222,-0.0174,-0.0173,-0.0172,-0.0171,0,-0.0354,-0.036,-0.0339,-0.0319,-0.0302,-0.0288,-0.0275,-0.0261,-0.0274,-0.0256,-0.023,-0.0215,-0.0187,-0.0162,-0.0143,-0.0139,-0.0157,-0.0159,-0.0149,-0.0143,-0.0141,-0.0141,-0.0271,-0.0162,-0.0163,-0.0163,-0.0164,-0.0164,-0.0278,-0.0254,-0.0245,-0.0222,-0.0214,-0.0202,-0.0179,-0.0181,-0.0159,-0.0137,-0.0147,-0.0116,-0.0108,-0.0084,-0.0077,-0.0053,-0.0069,-0.0055,-0.0052,-0.0048,-0.0042,-0.0146,-0.005,-0.005,-0.0051,-0.0051,-0.0051,0,-0.0176,-0.0173,-0.0151,-0.0133,-0.0114,-0.0134,-0.0122,-0.0104,-0.0077,-0.0068,-0.0049,-0.0019,0.0004,0.0004,0.0025,0.0044,0.0036,0.005,0.0049,0.0051,-0.0029,-0.004,0.0056,0.0056,0.0056,0.0056,0.0056,0.0056,-0.0121,-0.008,-0.0085,-0.0041,-0.0038,-0.0009,0.0,0.0011,0.0019,0.0053,0.0072,0.0071,0.0077,0.0099,0.0119,0.0118,0.0128,0.0145,0.0142,0.0067,0.0056,0.0046,0.0037,0.0147,0.0147,0.022,0.0221,0.0221]}]]